Regional Weather Roundup
Issued by NWS Little Rock, AR

Home | Current Version | Previous Version | Graphics & Text | Print | Product List | Glossary On
Versions: 1 2 3 4 5 6 7 8 9 10 11 12 13 14 15 16 17 18 19 20 21 22 23 24 25 26 27 28 29 30 31 32 33 34 35 36 37 38 39 40 41 42 43 44 45 46 47 48
000
ASUS44 KLZK 090705
RWRLZK

WEATHER ROUNDUP FOR ARKANSAS
NATIONAL WEATHER SERVICE LITTLE ROCK AR
100 AM CST TUE FEB 09 2016

NOTE: "FAIR" INDICATES FEW OR NO CLOUDS BELOW 12,000 FEET WITH NO
SIGNIFICANT WEATHER AND/OR OBSTRUCTIONS TO VISIBILITY.

ARZ001-003-010-029-090800-
NORTHWEST ARKANSAS

CITY           SKY/WX    TMP DP  RH WIND       PRES   REMARKS
FAYETTEVILLE   CLEAR     30  17  58 NW10      30.10R WCI  21
FORT SMITH     PTCLDY    38  13  35 NW14      30.15R
HARRISON       PTCLDY    30  12  47 NW18G32   30.01S WCI  18
BENTONVILLE    CLEAR     30  14  51 NW14G20   30.09F WCI  20
ROGERS         CLEAR     30  16  56 NW12      30.08F WCI  20
SILOAM SPGS    CLEAR     32  12  43 NW16G24   30.11S WCI  21
HIGHFILL       CLEAR     31  18  58 NW14G23   30.08S WCI  21
$$

ARZ004-005-016-090800-
NORTH CENTRAL ARKANSAS

CITY           SKY/WX    TMP DP  RH WIND       PRES   REMARKS
BATESVILLE     CLOUDY    34  14  44 W15G23    30.01S WCI  24
FLIPPIN        CLEAR    N/A N/A N/A NW17G29   29.99S
MTN HOME       PTCLDY    29  14  53 NW9G23    29.99S WCI  20
$$

ARZ040-041-090800-
WEST CENTRAL ARKANSAS

CITY           SKY/WX    TMP DP  RH WIND       PRES   REMARKS
MENA           CLEAR     39  18  41 NW14G26   30.10F
MOUNT IDA      PTCLDY    38  13  35 NW9G24    30.06F
$$

ARZ009-017-025-026-028-090800-
NORTHEAST ARKANSAS

CITY           SKY/WX    TMP DP  RH WIND       PRES   REMARKS
CORNING        FAIR      32  18  55 NW16G23   29.97S WCI  21
JONESBORO      MOCLDY    31  18  58 NW14G22   29.98F WCI  21
NEWPORT        MOCLDY    31  19  61 N6        30.01F WCI  25
WALNUT RIDGE   CLOUDY    30  16  55 NW14      29.99S WCI  20
BLYTHEVILLE    CLOUDY    33  19  56 NW20      29.96F WCI  21
$$

ARZ022-023-033-042-044-090800-
CENTRAL ARKANSAS

CITY           SKY/WX    TMP DP  RH WIND       PRES   REMARKS
LITTLE ROCK    CLEAR     38  13  35 NW15G23   30.05F
N LITTLE ROCK    N/A     35  16  46 NW8       30.05F WCI  28
JACKSONVILLE   CLEAR     35  13  41 W6        30.03F WCI  30
SEARCY         CLEAR     34  16  47 NW12      30.04F WCI  25
HOT SPRINGS    PTCLDY    39  12  33 NW10G22   30.08F
RUSSELLVILLE   CLEAR     37  13  37 NW16G25   30.06F
CLINTON        FAIR      34  12  40 NW8G20    30.04S WCI  27
$$

ARZ036-090800-
EAST ARKANSAS

CITY           SKY/WX    TMP DP  RH WIND       PRES   REMARKS
WEST MEMPHIS   CLOUDY    34  22  61 N10G20    29.98F WCI  26
$$

ARZ050-053-066-070-073-090800-
SOUTHWEST ARKANSAS

CITY           SKY/WX    TMP DP  RH WIND       PRES   REMARKS
ARKADELPHIA    FAIR      39  15  38 W7        30.11F
CAMDEN         MIX PCPN  39  10  30 NW6       30.12S
TEXARKANA      CLEAR     39  15  37 NW12      30.16F
EL DORADO      PTCLDY    38  13  35 W7        30.12S
DE QUEEN       CLEAR     40  15  36 NW7       30.15F
$$

ARZ056-057-069-090800-
SOUTHEAST ARKANSAS

CITY           SKY/WX    TMP DP  RH WIND       PRES   REMARKS
PINE BLUFF     PTCLDY    36  15  42 W8        30.06F
STUTTGART      CLEAR     36  18  48 W12       30.04F
MONTICELLO     PTCLDY    35  17  47 W5        30.07S WCI  31

$$





USA.gov is the U.S. government's official web portal to all federal, state and local government web resources and services.